HAZ3326 ZGHA-ZGGG

Flight info

Callsign HAZ3326
Flight time N/A
Altitude 30100
Route UBMOG W615 IDAXI R473 BEMAG V5 ENVIP
Aircraft A20N/M-SD1T1E2E3FGILRWXY/LB1D1

Departure

Time 2026-04-27 12:05
Airport Changsha Huanghua International Airport (ZGHA)

Arrival

Time N/A
Airport Guangzhou Baiyun International Airport (ZGGG)
Time Latitude Longitude Altitude Speed Heading
2026-04-27 12:04 28.08502 113.24924 5731 ft 226 kts 105°
2026-04-27 12:05 28.08471 113.25148 5817 ft 227 kts 102°
2026-04-27 12:05 28.08409 113.26019 6154 ft 230 kts 98°
2026-04-27 12:05 28.08313 113.27827 6812 ft 235 kts 98°
2026-04-27 12:06 28.08205 113.29692 7475 ft 239 kts 98°
2026-04-27 12:06 28.08091 113.31567 8139 ft 242 kts 98°
2026-04-27 12:06 28.07971 113.33472 8777 ft 246 kts 98°
2026-04-27 12:06 28.07844 113.35431 9405 ft 250 kts 98°
2026-04-27 12:07 28.07713 113.37386 10031 ft 253 kts 97°
2026-04-27 12:07 28.07577 113.39409 10515 ft 264 kts 97°
2026-04-27 12:07 28.07392 113.41512 10847 ft 279 kts 106°
2026-04-27 12:07 28.06504 113.43484 11210 ft 284 kts 140°
2026-04-27 12:08 28.04815 113.44611 11577 ft 289 kts 168°
2026-04-27 12:08 28.02793 113.45069 11956 ft 303 kts 173°
2026-04-27 12:08 28.00650 113.45515 12322 ft 320 kts 171°
2026-04-27 12:08 27.98440 113.46063 12746 ft 333 kts 169°
2026-04-27 12:09 27.96148 113.46711 13204 ft 344 kts 168°
2026-04-27 12:09 27.93814 113.47421 13653 ft 355 kts 167°
2026-04-27 12:09 27.91388 113.48193 14107 ft 364 kts 167°
2026-04-27 12:09 27.88929 113.48994 14558 ft 373 kts 166°
2026-04-27 12:10 27.86404 113.49822 15007 ft 381 kts 166°
2026-04-27 12:10 27.83855 113.50665 15453 ft 388 kts 166°
2026-04-27 12:10 27.81232 113.51535 15905 ft 394 kts 166°
2026-04-27 12:10 27.78577 113.52420 16352 ft 400 kts 166°
2026-04-27 12:11 27.75917 113.53307 16793 ft 405 kts 166°
2026-04-27 12:11 27.73185 113.54218 17238 ft 410 kts 166°
2026-04-27 12:11 27.70442 113.55132 17682 ft 413 kts 166°
2026-04-27 12:11 27.67647 113.56065 18135 ft 417 kts 166°
2026-04-27 12:12 27.64882 113.56986 18577 ft 420 kts 166°
2026-04-27 12:12 27.62018 113.57657 19012 ft 419 kts 177°
2026-04-27 12:12 27.59072 113.57806 19472 ft 420 kts 181°
2026-04-27 12:12 27.56153 113.57840 19918 ft 423 kts 182°
2026-04-27 12:13 27.53188 113.57878 20365 ft 426 kts 181°
2026-04-27 12:13 27.50227 113.57941 20812 ft 428 kts 181°
2026-04-27 12:13 27.47263 113.58028 21256 ft 430 kts 181°
2026-04-27 12:13 27.44255 113.58134 21705 ft 432 kts 180°
2026-04-27 12:14 27.41241 113.58247 22151 ft 434 kts 180°
2026-04-27 12:14 27.38193 113.58368 22598 ft 435 kts 180°
2026-04-27 12:14 27.35158 113.58492 23061 ft 437 kts 180°
2026-04-27 12:14 27.32140 113.58619 23519 ft 438 kts 180°
2026-04-27 12:15 27.29095 113.58749 23981 ft 439 kts 180°
2026-04-27 12:15 27.26000 113.58878 24458 ft 440 kts 180°
2026-04-27 12:15 27.22953 113.59008 24883 ft 442 kts 180°
2026-04-27 12:15 27.19879 113.59138 25256 ft 445 kts 180°
2026-04-27 12:16 27.16727 113.59272 25470 ft 452 kts 180°
2026-04-27 12:16 27.13549 113.59404 25475 ft 463 kts 180°
2026-04-27 12:16 27.10316 113.59540 25481 ft 473 kts 180°
2026-04-27 12:16 27.06961 113.59681 25486 ft 482 kts 180°
2026-04-27 12:17 27.03598 113.59823 25486 ft 489 kts 180°
2026-04-27 12:17 27.00169 113.59969 25487 ft 495 kts 180°
2026-04-27 12:17 26.96712 113.60114 25493 ft 496 kts 180°
2026-04-27 12:17 26.93233 113.60264 25495 ft 496 kts 180°
2026-04-27 12:18 26.89820 113.60410 25499 ft 496 kts 180°
2026-04-27 12:18 26.86353 113.60557 25502 ft 495 kts 180°
2026-04-27 12:18 26.82902 113.60702 25504 ft 495 kts 180°
2026-04-27 12:18 26.79475 113.60850 25506 ft 495 kts 180°
2026-04-27 12:19 26.76010 113.60997 25506 ft 495 kts 180°
2026-04-27 12:19 26.72587 113.61141 25510 ft 495 kts 180°
2026-04-27 12:19 26.69129 113.61287 25516 ft 495 kts 180°
2026-04-27 12:19 26.65708 113.61431 25515 ft 495 kts 180°
2026-04-27 12:20 26.62253 113.61576 25520 ft 495 kts 180°
2026-04-27 12:20 26.58793 113.61723 25519 ft 494 kts 180°
2026-04-27 12:20 26.55355 113.61868 25521 ft 494 kts 180°
2026-04-27 12:20 26.51893 113.62013 25523 ft 494 kts 180°
2026-04-27 12:21 26.48481 113.62155 25526 ft 495 kts 180°
2026-04-27 12:21 26.45023 113.62300 25531 ft 495 kts 180°
2026-04-27 12:21 26.41566 113.62446 25537 ft 494 kts 180°
2026-04-27 12:21 26.38143 113.62590 25539 ft 494 kts 180°
2026-04-27 12:22 26.34717 113.62734 25545 ft 493 kts 180°
2026-04-27 12:22 26.31274 113.62877 25549 ft 493 kts 180°
2026-04-27 12:22 26.27832 113.63021 25553 ft 493 kts 179°
2026-04-27 12:22 26.24424 113.63165 25557 ft 493 kts 180°
2026-04-27 12:23 26.20989 113.63309 25560 ft 493 kts 179°
2026-04-27 12:23 26.17516 113.63454 25562 ft 493 kts 180°
2026-04-27 12:23 26.14124 113.63596 25565 ft 492 kts 179°
2026-04-27 12:23 26.10666 113.63740 25569 ft 492 kts 180°
2026-04-27 12:24 26.07253 113.63882 25577 ft 492 kts 179°
2026-04-27 12:24 26.03845 113.64024 25580 ft 492 kts 180°
2026-04-27 12:24 26.00414 113.64167 25581 ft 492 kts 179°
2026-04-27 12:24 25.96976 113.64311 25582 ft 491 kts 180°
2026-04-27 12:25 25.93539 113.64454 25581 ft 492 kts 180°
2026-04-27 12:25 25.90141 113.64596 25580 ft 492 kts 179°
2026-04-27 12:25 25.86678 113.64740 25581 ft 492 kts 180°
2026-04-27 12:25 25.83292 113.64881 25577 ft 492 kts 180°
2026-04-27 12:26 25.79852 113.65024 25572 ft 492 kts 180°
2026-04-27 12:26 25.76417 113.65177 25569 ft 493 kts 180°
2026-04-27 12:26 25.72977 113.65337 25569 ft 492 kts 180°
2026-04-27 12:26 25.69578 113.65491 25569 ft 493 kts 180°
2026-04-27 12:27 25.66137 113.65643 25572 ft 492 kts 180°
2026-04-27 12:27 25.62708 113.65791 25577 ft 492 kts 180°
2026-04-27 12:27 25.59282 113.65937 25580 ft 492 kts 180°
2026-04-27 12:27 25.55862 113.66080 25582 ft 492 kts 180°
2026-04-27 12:28 25.52420 113.66222 25584 ft 493 kts 180°
2026-04-27 12:28 25.48976 113.66365 25588 ft 493 kts 180°
2026-04-27 12:28 25.45548 113.66507 25587 ft 493 kts 180°
2026-04-27 12:28 25.42123 113.66649 25585 ft 493 kts 180°
2026-04-27 12:29 25.38712 113.66790 25579 ft 493 kts 180°
2026-04-27 12:29 25.35286 113.66931 25571 ft 493 kts 180°
2026-04-27 12:29 25.31838 113.67073 25565 ft 493 kts 180°
2026-04-27 12:29 25.28422 113.67213 25559 ft 493 kts 180°
2026-04-27 12:30 25.24983 113.67354 25551 ft 493 kts 180°
2026-04-27 12:30 25.21544 113.67495 25546 ft 493 kts 180°
2026-04-27 12:30 25.18101 113.67635 25541 ft 494 kts 180°
2026-04-27 12:30 25.14657 113.67777 25539 ft 494 kts 180°
2026-04-27 12:31 25.11209 113.67919 25536 ft 494 kts 180°
2026-04-27 12:31 25.07767 113.68061 25534 ft 494 kts 180°
2026-04-27 12:31 25.04347 113.68202 25534 ft 494 kts 180°
2026-04-27 12:31 25.00924 113.68342 25531 ft 494 kts 180°
2026-04-27 12:32 24.97446 113.68483 25527 ft 494 kts 180°
2026-04-27 12:32 24.94010 113.68625 25527 ft 494 kts 180°
2026-04-27 12:32 24.90583 113.68766 25526 ft 493 kts 180°
2026-04-27 12:32 24.87148 113.68905 25525 ft 493 kts 180°
2026-04-27 12:33 24.83717 113.69043 25523 ft 494 kts 180°
2026-04-27 12:33 24.80250 113.69185 25523 ft 494 kts 180°
2026-04-27 12:33 24.76904 113.69322 25523 ft 494 kts 180°
2026-04-27 12:33 24.73500 113.69460 25521 ft 494 kts 180°
2026-04-27 12:34 24.70030 113.69600 25322 ft 495 kts 180°
2026-04-27 12:34 24.66615 113.69740 24944 ft 493 kts 180°
2026-04-27 12:34 24.63165 113.69880 24569 ft 491 kts 180°
2026-04-27 12:34 24.59754 113.69933 24160 ft 487 kts 186°
2026-04-27 12:35 24.56452 113.69239 23662 ft 480 kts 197°
2026-04-27 12:35 24.53260 113.68203 23169 ft 476 kts 199°
2026-04-27 12:35 24.50088 113.67111 22678 ft 473 kts 200°
2026-04-27 12:35 24.46985 113.66059 22209 ft 470 kts 199°
2026-04-27 12:36 24.43844 113.65019 21736 ft 467 kts 199°
2026-04-27 12:36 24.40758 113.64020 21268 ft 464 kts 199°
2026-04-27 12:36 24.37651 113.63030 20796 ft 461 kts 199°
2026-04-27 12:36 24.34567 113.62058 20217 ft 458 kts 198°
2026-04-27 12:37 24.31510 113.61100 19631 ft 454 kts 198°
2026-04-27 12:37 24.28473 113.60150 19039 ft 450 kts 198°
2026-04-27 12:37 24.25476 113.59217 18448 ft 446 kts 198°
2026-04-27 12:37 24.22513 113.58294 17862 ft 443 kts 198°
2026-04-27 12:38 24.19539 113.57369 17271 ft 440 kts 198°
2026-04-27 12:38 24.16634 113.56466 16685 ft 436 kts 198°
2026-04-27 12:38 24.13733 113.55564 16092 ft 432 kts 198°
2026-04-27 12:38 24.10854 113.54670 15507 ft 427 kts 198°
2026-04-27 12:39 24.07976 113.53775 14909 ft 423 kts 198°
2026-04-27 12:39 24.05183 113.52908 14330 ft 417 kts 198°
2026-04-27 12:39 24.02393 113.52043 13742 ft 412 kts 198°
2026-04-27 12:39 23.99663 113.51197 13148 ft 407 kts 197°
2026-04-27 12:40 23.96937 113.50353 12546 ft 405 kts 197°
2026-04-27 12:40 23.94237 113.49516 11943 ft 401 kts 197°
2026-04-27 12:40 23.91548 113.48683 11340 ft 398 kts 197°
2026-04-27 12:40 23.88891 113.47861 10738 ft 395 kts 197°
2026-04-27 12:41 23.86242 113.47046 10134 ft 392 kts 196°
2026-04-27 12:41 23.83610 113.46237 9529 ft 387 kts 196°
2026-04-27 12:41 23.81021 113.45441 8922 ft 384 kts 196°
2026-04-27 12:41 23.78464 113.44653 8321 ft 381 kts 196°
2026-04-27 12:42 23.75909 113.43864 7704 ft 376 kts 196°
2026-04-27 12:42 23.73399 113.43090 7107 ft 370 kts 195°
2026-04-27 12:42 23.70936 113.42329 6502 ft 365 kts 195°
2026-04-27 12:42 23.68501 113.41537 5890 ft 361 kts 201°
2026-04-27 12:43 23.66248 113.40413 5333 ft 355 kts 202°
2026-04-27 12:43 23.63937 113.39575 4885 ft 347 kts 194°
2026-04-27 12:43 23.61598 113.38944 4451 ft 339 kts 193°